[[{"header":{"parameterUnit":"m.s-1","parameterCategory":1,"la1":30.2991,"la2":30.254,"lo1":-89.0895,"lo2":-89.0444,"dy":0.0017,"dx":0.0017,"nx":28,"ny":28,"refTime":"2023-08-13T09:00:00:Z","depth":0,"parameterNumber":2,"parameterNumberName":"U-component_of_WINDS"},"data":[0,0,0,0,0,0,0,0,0,0,0,0,0,0,0,0,0,0,0,0,0,0,0,0,0,0,0,0,0,0,0,0,0,0,0,0,0,0,0,0,0,0,0,0,0,0,0,0,0,0,0,0,0,0,0,0,0,0,1.6304,1.6305,0,1.6404,1.6405,1.6406,1.6378,1.6376,1.6374,1.6372,1.6481,1.6485,1.649,0,0,0,0,0,0,0,0,0,0,0,0,0,1.6093,1.6097,1.6304,1.6305,1.6306,1.6404,1.6405,1.6407,1.6378,1.6376,1.6373,1.6371,1.6479,1.6485,1.6491,0,0,0,0,0,0,0,0,0,0,0,0,0,1.6188,1.6098,1.6303,1.6304,1.6305,1.6404,1.6405,1.6407,1.6379,1.6376,1.6372,1.637,1.6477,1.6484,1.6491,1.6598,0,0,1.6514,1.6517,0,0,0,0,0,0,0,0,1.6183,1.6196,1.6302,1.6304,1.6305,1.6375,1.6371,1.6471,1.6379,1.6351,1.6372,1.6368,1.6449,1.6458,1.6484,1.6603,1.6608,1.6514,1.6519,1.6522,1.6524,0,0,0,0,0,0,0,1.6176,1.6191,1.6344,1.6304,1.6306,1.63,1.631,1.639,1.6416,1.6353,1.6351,1.6363,1.6449,1.6477,1.6486,1.661,1.6514,1.652,1.6525,1.6528,1.6822,1.6825,0,0,0,0,0,0,1.6168,1.6186,1.634,1.6347,1.6235,1.6307,1.6318,1.6356,1.6415,1.6421,1.6366,1.6361,1.6466,1.6478,1.649,1.6618,1.6522,1.6528,1.6533,1.6818,1.6822,1.6826,0,0,0,0,0,0,1.6163,1.6182,1.6336,1.6266,1.6285,1.6314,1.6356,1.6359,1.6387,1.6424,1.643,1.6389,1.6464,1.648,1.6571,1.6622,1.6532,1.6538,1.6814,1.682,1.6824,1.6877,0,0,0,0,0,0,1.6157,1.618,1.622,1.6267,1.6289,1.6414,1.636,1.6364,1.6399,1.6395,1.6448,1.6454,1.6463,1.656,1.6578,1.663,1.6544,1.681,1.6817,1.6823,1.6871,1.6883,1.6894,0,0,0,0,0,1.615,1.6232,1.6222,1.6241,1.6339,1.6417,1.643,1.6437,1.6403,1.6444,1.6468,1.6452,1.6613,1.657,1.659,1.6645,1.6807,1.6815,1.6822,1.6865,1.688,1.6893,0,0,0,0,0,0,1.6193,1.6238,1.6228,1.6327,1.6368,1.6412,1.6464,1.6453,1.6506,1.65,1.6508,1.652,1.6613,1.6638,1.6589,1.6751,1.6705,1.6717,1.6731,1.6746,1.6757,1.675,1.655,0,0,0,0,0,1.6214,1.6272,1.6309,1.6394,1.6414,1.6436,1.647,1.6472,1.6515,1.6533,1.6564,1.6608,1.6669,1.6709,1.6767,1.6874,1.6885,1.6921,1.6933,1.6942,1.6953,1.7011,1.7027,1.6852,1.6852,1.6852,0,0,1.6258,1.629,1.6327,1.6403,1.6435,1.6496,1.6451,1.6518,1.6564,1.6544,1.6631,1.6655,1.6706,1.6805,1.6851,1.6829,1.7004,1.6952,1.6959,1.6965,1.7021,1.7037,1.7052,1.6857,1.6856,1.6855,0,0,1.637,1.64,1.6473,1.6505,1.6553,1.6567,1.6584,1.663,1.6644,1.6731,1.6717,1.6773,1.6878,1.6914,1.6946,1.707,1.7058,1.7089,1.715,1.7206,1.722,1.7232,1.7276,1.7292,1.7099,1.71,1.71,0,1.6419,1.651,1.6513,1.658,1.6615,1.6597,1.6672,1.6704,1.677,1.6794,1.6768,1.6898,1.6931,1.7038,1.7068,1.7095,1.7116,1.7083,1.7217,1.723,1.7241,1.7284,1.73,1.7103,1.7103,1.7102,1.7102,0,1.6568,1.6631,1.6685,1.6745,1.6786,1.6857,1.6872,1.6913,1.6911,1.6927,1.7017,1.7055,1.712,1.7145,1.7145,1.7253,1.7238,1.7215,1.7169,1.7261,1.7301,1.7318,1.7108,1.7107,1.7106,1.7105,0,0,1.6711,1.6771,1.6791,1.6818,1.6869,1.6919,1.699,1.7051,1.7086,1.7131,1.7191,1.7279,1.7257,1.7294,1.7297,1.7347,1.7442,1.7318,1.7319,1.7339,1.7564,1.758,1.7599,1.7434,1.7437,1.744,1.7559,0,1.6827,1.6949,1.6953,1.7065,1.7124,1.7107,1.7169,1.7208,1.7225,1.7278,1.7298,1.736,1.7327,1.7349,1.7397,1.7421,1.7488,1.7412,1.7491,1.7494,1.7479,1.762,1.7638,1.7749,1.7575,1.7577,1.7579,0,1.6979,1.7027,1.7144,1.7186,1.721,1.7265,1.7321,1.7372,1.7416,1.7425,1.7465,1.7461,1.7535,1.7486,1.7588,1.7536,1.7569,1.7585,1.759,1.7597,1.7542,1.7632,1.7785,1.7801,1.7604,1.7602,1.76,0,1.7071,1.7165,1.7247,1.7271,1.7322,1.7361,1.7384,1.7425,1.7461,1.7511,1.7535,1.7593,1.7625,1.7671,1.7683,1.7646,1.7785,1.7737,1.7795,1.7795,1.7825,1.7823,1.7986,1.7847,1.7846,1.7846,1.7846,0,1.72,1.7273,1.7289,1.7339,1.742,1.7425,1.7505,1.7526,1.7562,1.7618,1.7608,1.766,1.7673,1.7728,1.7738,1.7821,1.7836,1.7846,1.7848,1.7847,1.7846,1.7869,1.7861,1.785,1.7849,1.7849,1.7848,0,1.7317,1.733,1.7419,1.7459,1.7471,1.7529,1.7564,1.7613,1.7628,1.7698,1.7715,1.774,1.7805,1.7821,1.7899,1.7905,1.8003,1.7997,1.7987,1.7987,1.8044,1.8038,1.8227,1.8252,1.8096,1.8098,1.8099,0,1.7398,1.7453,1.7499,1.7534,1.7558,1.7616,1.7652,1.7659,1.7697,1.7751,1.7794,1.7856,1.7907,1.8011,1.8037,1.8096,1.8092,1.8154,1.8101,1.8098,1.8093,1.8089,1.8094,1.8164,1.8166,1.8167,1.8168,0,1.7541,1.7545,1.7596,1.7651,1.7693,1.7737,1.7778,1.7808,1.7821,1.7865,1.7929,1.7968,1.8046,1.8109,1.8168,1.8194,1.8184,1.8185,1.8201,1.8201,1.8192,1.8197,1.8014,1.818,1.8179,1.8178,1.8178,1.8177,1.7643,1.7691,1.773,1.7787,1.7819,1.7857,1.7905,1.7925,1.7978,1.8041,1.8042,1.8113,1.8155,1.8233,1.8262,1.8318,1.8299,1.8323,1.8329,1.8335,1.834,1.8183,1.8329,1.8329,1.8328,1.8328,1.8328,0,1.7785,1.7809,1.7862,1.7919,1.7965,1.7949,1.7994,1.8033,1.8094,1.8134,1.8183,1.8257,1.8317,1.8347,1.8407,1.8446,1.8443,1.8462,1.8459,1.8465,1.8353,1.8333,1.8463,1.8463,1.8463,1.8463,1.8463,1.8463,1.7865,1.7944,1.7952,1.8048,1.8071,1.8138,1.8165,1.8201,1.8232,1.8315,1.8364,1.8382,1.8418,1.848,1.8535,1.8542,1.8565,1.8586,1.8591,1.8487,1.8473,1.846,1.844,1.8591,1.8591,1.8698,1.8699,1.87]},{"header":{"parameterUnit":"m.s-1","parameterCategory":1,"la1":30.2991,"la2":30.254,"lo1":-89.0895,"lo2":-89.0444,"dy":0.0017,"dx":0.0017,"nx":28,"ny":28,"refTime":"2023-08-13T09:00:00:Z","depth":0,"parameterNumber":3,"parameterNumberName":"V-component_of_WINDS"},"data":[0,0,0,0,0,0,0,0,0,0,0,0,0,0,0,0,0,0,0,0,0,0,0,0,0,0,0,0,0,0,0,0,0,0,0,0,0,0,0,0,0,0,0,0,0,0,0,0,0,0,0,0,0,0,0,0,0,0,3.1137,3.1137,0,3.1145,3.1145,3.1145,3.1169,3.117,3.117,3.1171,3.1175,3.1175,3.1175,0,0,0,0,0,0,0,0,0,0,0,0,0,3.1136,3.1136,3.1137,3.1137,3.1137,3.1145,3.1145,3.1145,3.1169,3.117,3.117,3.1171,3.1175,3.1175,3.1175,0,0,0,0,0,0,0,0,0,0,0,0,0,3.1139,3.1136,3.1137,3.115,3.1151,3.1145,3.1145,3.1145,3.1169,3.117,3.117,3.1171,3.1176,3.1175,3.1175,3.1155,0,0,3.1173,3.1173,0,0,0,0,0,0,0,0,3.1139,3.1139,3.1148,3.1149,3.115,3.1157,3.1147,3.1148,3.1169,3.1162,3.1171,3.1172,3.1168,3.1168,3.1168,3.1155,3.1156,3.1173,3.1172,3.1172,3.1172,0,0,0,0,0,0,0,3.1139,3.1139,3.114,3.1148,3.1149,3.1153,3.1155,3.1147,3.116,3.1163,3.1164,3.1165,3.1169,3.1169,3.1168,3.1156,3.1173,3.1172,3.1172,3.1172,3.1124,3.1123,0,0,0,0,0,0,3.1137,3.1139,3.114,3.114,3.1147,3.1153,3.1154,3.1154,3.1161,3.1162,3.1164,3.1166,3.1169,3.1169,3.1169,3.1144,3.1172,3.1172,3.1171,3.1124,3.1123,3.1122,0,0,0,0,0,0,3.1137,3.1137,3.1139,3.114,3.1141,3.1152,3.1151,3.1154,3.1153,3.1162,3.1164,3.1162,3.117,3.1169,3.1158,3.1144,3.1171,3.1171,3.1126,3.1124,3.1123,3.1096,0,0,0,0,0,0,3.1137,3.1137,3.1131,3.114,3.114,3.113,3.1151,3.1153,3.1153,3.1155,3.116,3.1162,3.117,3.1158,3.1157,3.1144,3.1171,3.1127,3.1125,3.1123,3.1098,3.1094,3.109,0,0,0,0,0,3.1137,3.1123,3.1131,3.1131,3.1134,3.1129,3.1129,3.1141,3.1152,3.1144,3.115,3.1162,3.1146,3.1157,3.1156,3.1142,3.1128,3.1125,3.1123,3.11,3.1094,3.109,0,0,0,0,0,0,3.1113,3.1125,3.1133,3.1122,3.1124,3.1133,3.1125,3.1135,3.1134,3.1136,3.1149,3.115,3.1135,3.1138,3.115,3.1122,3.1139,3.1136,3.1121,3.1116,3.1112,3.1111,3.117,0,0,0,0,0,3.1106,3.1103,3.1113,3.1102,3.1103,3.1114,3.1112,3.1121,3.1123,3.1124,3.1128,3.1129,3.1124,3.112,3.1117,3.1099,3.1098,3.1088,3.1084,3.1081,3.1078,3.1065,3.106,3.1115,3.1115,3.1115,0,0,3.1092,3.1098,3.1096,3.1097,3.11,3.1094,3.1114,3.1108,3.1103,3.1122,3.1111,3.1114,3.1116,3.11,3.1093,3.1102,3.1063,3.1078,3.1076,3.1075,3.1063,3.1057,3.1053,3.1114,3.1114,3.1114,0,0,3.1063,3.1069,3.1059,3.1061,3.1065,3.1072,3.107,3.1076,3.1079,3.1069,3.1082,3.1075,3.1068,3.1067,3.1066,3.1034,3.1043,3.1032,3.1011,3.0998,3.0994,3.099,3.0976,3.0971,3.103,3.103,3.103,0,3.1045,3.1039,3.1053,3.1045,3.1044,3.1061,3.105,3.1051,3.1053,3.1051,3.1061,3.1049,3.1051,3.1034,3.1026,3.1025,3.102,3.1031,3.0994,3.099,3.0986,3.0973,3.0968,3.1028,3.1028,3.1028,3.1028,0,3.1015,3.101,3.1001,3.1003,3.1001,3.0992,3.1001,3.0998,3.1005,3.101,3.0997,3.1,3.0996,3.0993,3.1001,3.0976,3.098,3.0992,3.1008,3.0979,3.0967,3.0962,3.1026,3.1026,3.1027,3.1027,0,0,3.0972,3.098,3.0976,3.0976,3.098,3.0976,3.0966,3.0962,3.0957,3.0957,3.0947,3.0939,3.0949,3.0947,3.0955,3.0944,3.0914,3.0956,3.0956,3.0946,3.0883,3.0873,3.0867,3.0921,3.092,3.092,3.0882,0,3.0943,3.0927,3.0938,3.092,3.0913,3.0929,3.0919,3.092,3.0924,3.0917,3.0921,3.0914,3.0929,3.0927,3.0917,3.092,3.0902,3.0923,3.0909,3.0908,3.0906,3.0861,3.0851,3.0816,3.0878,3.0877,3.0876,0,3.0907,3.0906,3.0887,3.089,3.0888,3.088,3.0876,3.087,3.087,3.0873,3.087,3.0879,3.0867,3.0884,3.0865,3.0879,3.0874,3.0874,3.0873,3.087,3.0889,3.0855,3.0805,3.0798,3.0869,3.087,3.087,0,3.0874,3.0868,3.0855,3.0854,3.0859,3.0852,3.0853,3.0853,3.085,3.0845,3.0842,3.0837,3.0833,3.0827,3.0833,3.0846,3.0812,3.0831,3.0812,3.0811,3.0803,3.0803,3.0749,3.0803,3.0803,3.0803,3.0803,0,3.084,3.0827,3.084,3.0832,3.0817,3.0828,3.0812,3.0815,3.0815,3.0805,3.0818,3.0809,3.0819,3.0809,3.0814,3.0795,3.0794,3.0794,3.0795,3.0792,3.0792,3.0787,3.0789,3.0802,3.0802,3.0802,3.0803,0,3.08,3.0809,3.0795,3.08,3.0801,3.0789,3.0792,3.0783,3.0787,3.0775,3.0773,3.0778,3.0768,3.0774,3.0763,3.0766,3.0741,3.0747,3.0741,3.0742,3.0722,3.0722,3.0661,3.0652,3.0714,3.0714,3.0713,0,3.0777,3.0767,3.0771,3.0766,3.0766,3.0758,3.0754,3.0764,3.0759,3.0756,3.0747,3.0737,3.073,3.0712,3.0714,3.0704,3.0708,3.0687,3.0707,3.0702,3.0704,3.0704,3.0701,3.0682,3.0682,3.0681,3.0681,0,3.0734,3.0738,3.0732,3.0727,3.0722,3.0718,3.0715,3.071,3.072,3.0713,3.0702,3.0697,3.0685,3.0674,3.0665,3.0664,3.0672,3.0675,3.0669,3.0665,3.0661,3.066,3.0728,3.0676,3.0676,3.0677,3.0677,3.0677,3.07,3.0691,3.0691,3.0683,3.0682,3.0679,3.067,3.0672,3.0664,3.0656,3.0662,3.0648,3.0645,3.0634,3.0631,3.0619,3.0627,3.062,3.0618,3.0615,3.0611,3.0665,3.0618,3.0618,3.0618,3.0618,3.0618,0,3.0655,3.0655,3.0648,3.0644,3.0637,3.0647,3.0644,3.0636,3.0625,3.0622,3.0614,3.06,3.0589,3.0589,3.0578,3.0568,3.0571,3.0564,3.0564,3.0563,3.0606,3.0611,3.0562,3.0562,3.0562,3.0562,3.0562,3.0562,3.063,3.0615,3.0618,3.0601,3.0601,3.0589,3.0585,3.0581,3.0578,3.0562,3.0553,3.0554,3.0551,3.0539,3.0528,3.0528,3.0522,3.0513,3.0514,3.0555,3.056,3.0566,3.057,3.0513,3.0512,3.0472,3.0471,3.0471]}]]